This demonstration page uses our WeatherBlox Daily Observations layout. Learn more.

Left ArrowRight Arrow

40.92501, -98.34201

Hourly Observations for February 21, 2022

Temp ( °F °C ) Dew Point ( °F °C ) Humidity (%) Winds ( mph kmh ) Pressure ( in mb ) Visibility ( mi km ) Precip ( " mm )
12:53 am 00:53 Clear 38 3.3 22 -5.6 52 52 SE 7 11 29.71 1006 10 16 0.00 0.00
1:53 am 01:53 Clear 31 -0.6 20 -6.7 64 64 ENE 7 11 29.69 1005 10 16 0.00 0.00
2:53 am 02:53 Clear 29 -1.7 19 -7.2 66 66 NE 8 13 29.68 1005 10 16 0.00 0.00
3:53 am 03:53 Clear 25 -3.9 18 -7.8 75 75 NNE 8 13 29.67 1005 10 16 0.00 0.00
4:53 am 04:53 Clear 27 -2.8 23 -5 85 85 NNE 13 20 29.67 1005 10 16 0.00 0.00
5:53 am 05:53 Clear 27 -2.8 24 -4.4 89 89 N 13 20 29.69 1005 10 16 0.00 0.00
6:23 am 06:23 Mostly Clear 26 -3.3 23 -5 88 88 N 10 17 29.77 1008 10 16 0.00 0.00
6:37 am 06:37 Mostly Cloudy 26 -3.3 23 -5 88 88 NNE 12 19 29.76 1008 10 16 0.00 0.00
6:53 am 06:53 Cloudy 26 -3.3 23 -5 88 88 NNE 14 22 29.70 1006 10 16 0.00 0.00
7:29 am 07:29 Cloudy with Mist and Fog 27 -2.8 24 -4.4 89 89 NNE 14 22 29.76 1008 6 10 0.00 0.00
7:53 am 07:53 Cloudy with Mist and Fog 28 -2.2 25 -3.9 88 88 NNE 17 28 29.71 1006 5 8 0.00 0.00
8:53 am 08:53 Cloudy 26 -3.3 22 -5.6 84 84 N 18 30 29.74 1007 7 11 0.00 0.00
9:00 am 09:00 Cloudy 25 -3.9 22 -5.6 88 88 N 20 31 29.79 1009 7 11 0.00 0.00
9:53 am 09:53 Cloudy 25 -3.9 21 -6.1 85 85 N 22 35 29.76 1008 7 11 0.00 0.00
10:53 am 10:53 Cloudy 24 -4.4 18 -7.8 77 77 N 23 37 29.80 1009 10 16 0.00 0.00
11:35 am 11:35 Cloudy 24 -4.4 16 -8.9 71 71 N 28 44 29.87 1011 10 16 0.00 0.00
11:53 am 11:53 Cloudy 23 -5 15 -9.4 72 72 N 28 44 29.82 1010 10 16 0.00 0.00
12:26 pm 12:26 Cloudy 24 -4.4 13 -10.6 62 62 NNW 28 44 29.88 1012 10 16 0.00 0.00
12:53 pm 12:53 Cloudy 20 -6.7 10 -12.2 65 65 N 29 46 29.83 1010 10 16 0.00 0.00
1:53 pm 13:53 Cloudy 21 -6.1 12 -11.1 68 68 N 26 43 29.86 1011 10 16 0.00 0.00
2:53 pm 14:53 Windy with Snow Likely 19 -7.2 8 -13.3 62 62 N 29 46 29.88 1012 9 14 0.00 0.00
3:53 pm 15:53 Windy with Snow Likely 15 -9.4 6 -14.4 67 67 N 23 37 29.92 1013 8 13 0.00 0.00
4:53 pm 16:53 Windy with Snow Likely 13 -10.6 4 -15.6 67 67 N 28 44 29.94 1014 7 11 0.00 0.00
5:09 pm 17:09 Windy with Snow Likely 12 -11.1 5 -15 73 73 N 28 44 30.02 1017 6 10 0.00 0.00
5:53 pm 17:53 Windy with Snow Likely 11 -11.7 4 -15.6 73 73 N 23 37 29.96 1015 6 10 0.00 0.00
6:53 pm 18:53 Windy with Snow Likely 10 -12.2 4 -15.6 76 76 N 23 37 30.00 1016 5 8 0.00 0.00
7:34 pm 19:34 Windy with Snow Likely 9 -12.8 3 -16.1 77 77 N 28 44 30.11 1020 6 10 0.00 0.00
7:53 pm 19:53 Windy with Snow Likely 8 -13.3 2 -16.7 76 76 N 24 39 30.03 1017 4 6 0.00 0.00
8:08 pm 20:08 Cloudy 8 -13.3 2 -16.7 76 76 NNW 30 48 30.14 1021 7 11 0.00 0.00
8:53 pm 20:53 Cloudy with Haze 7 -13.9 1 -17.2 76 76 N 21 33 30.08 1019 5 8 0.00 0.00
9:09 pm 21:09 Windy with Snow Likely 6 -14.4 1 -17.2 79 79 N 32 52 30.15 1021 3 5 0.00 0.00
9:21 pm 21:21 Windy with Snow Likely 6 -14.4 1 -17.2 79 79 NNW 26 43 30.16 1021 2 3 0.00 0.00
9:31 pm 21:31 Windy with Snow Likely 6 -14.4 1 -17.2 79 79 N 24 39 30.16 1021 3 4 0.00 0.00
9:45 pm 21:45 Windy with Snow Likely 6 -14.4 1 -17.2 79 79 NNW 28 44 30.15 1021 2 3 0.00 0.00
9:53 pm 21:53 Windy with Snow Likely 5 -15 0 -17.8 79 79 NNW 29 46 30.06 1018 3 4 0.00 0.00
10:15 pm 22:15 Windy with Snow Likely 5 -15 0 -17.8 79 79 N 26 43 30.14 1021 3 5 0.00 0.00
10:53 pm 22:53 Windy with Snow Likely 5 -15 0 -17.8 79 79 N 29 46 30.06 1018 3 5 0.00 0.00
11:05 pm 23:05 Windy with Snow Likely 5 -15 0 -17.8 79 79 N 30 48 30.15 1021 2 3 0.00 0.00
11:53 pm 23:53 Windy with Snow Likely 4 -15.6 -1 -18.3 80 80 N 26 43 30.08 1019 2 3 0.00 0.00

Powered by AerisWeather